Repton, AL

9:00 AM CST on December 09, 2016 (GMT -0600)
Middleton

Weather History for KGZH - April, 2014

Change the Weather History Date:

Wednesday, April 2, 2014

  Actual Average (KPRN) Record (KPRN)
Temperature  
Mean Temperature 72 °F -  
Max Temperature 84 °F 76 °F 87 °F (1935)
Min Temperature 59 °F 48 °F 33 °F (1972)
Cooling Degree Days 6    
Growing Degree Days 22 (Base 50)    
Moisture  
Dew Point 59 °F    
Average Humidity 78    
Maximum Humidity 93    
Minimum Humidity 43    
Precipitation  
Precipitation 0.00 in - - ()
Sea Level Pressure  
Sea Level Pressure 30.12 in    
Wind  
Wind Speed 7 mph (South)    
Max Wind Speed 14 mph    
Max Gust Speed 20 mph    
Visibility 7 miles    
Events Fog    
Averages and records for this station are not official NWS values.
T = Trace of Precipitation, MM = Missing Value Source: NWS Daily Summary

Daily Weather History Graph

Daily Weather History Graph

Search for Another Location

Airport or City:

Trip Planner

Search our weather history database for the weather conditions in past years. The results will help you decide how hot, cold, wet, or windy it might be!

Date:

Astronomy

Apr. 02, 2014 Rise Set
Actual Time 6:35 AM CDT 7:08 PM CDT
Civil Twilight 6:11 AM CDT 7:32 PM CDT
Nautical Twilight 5:42 AM CDT 8:01 PM CDT
Astronomical Twilight 5:13 AM CDT 8:30 PM CDT
Moon 8:29 AM CDT (4/2) 10:19 PM CDT (4/2)
Length of Visible Light 13h 21m
Length of Day
12h 32m
Waxing Crescent, 10% of the Moon is Illuminated
Apr 2
Waxing Crescent
Apr 7
First Quarter
Apr 15
Full
Apr 22
Last Quarter
Apr 29
New

Hourly Weather History & Observations

Time (CDT) Temp. Heat Index Dew Point Humidity Pressure Visibility Wind Dir Wind Speed Gust Speed Precip Events Conditions
12:15 AM 59.0 °F - 55.9 °F 90% 30.13 in 10.0 mi South 5.8 mph - N/A   Mostly Cloudy
12:24 AM 59.0 °F - 55.9 °F 90% 30.13 in 9.0 mi South 5.8 mph - N/A   Overcast
12:53 AM 59.0 °F - 55.9 °F 90% 30.12 in 8.0 mi SSE 5.8 mph - N/A   Overcast
1:17 AM 60.1 °F - 57.0 °F 90% 30.12 in 4.0 mi South 8.1 mph - N/A   Overcast
1:35 AM 60.1 °F - 57.0 °F 90% 30.12 in 1.8 mi South 8.1 mph - N/A   Overcast
1:48 AM 60.8 °F - 57.2 °F 88% 30.12 in 0.5 mi South 5.8 mph - N/A Fog Fog
1:53 AM 60.1 °F - 57.9 °F 93% 30.11 in 0.5 mi South 8.1 mph - N/A Fog Fog
2:53 AM 60.1 °F - 57.9 °F 93% 30.11 in 0.5 mi South 5.8 mph - N/A Fog Fog
3:53 AM 60.1 °F - 57.9 °F 93% 30.11 in 0.5 mi South 3.5 mph - N/A Fog Fog
4:53 AM 60.1 °F - 57.9 °F 93% 30.11 in 0.2 mi SE 3.5 mph - N/A Fog Fog
5:53 AM 60.1 °F - 57.9 °F 93% 30.12 in 0.2 mi ESE 4.6 mph - N/A Fog Fog
7:40 AM 60.1 °F - 57.9 °F 93% 30.15 in 1.8 mi Calm Calm - N/A   Overcast
7:53 AM 60.1 °F - 57.9 °F 93% 30.15 in 1.0 mi ESE 5.8 mph - N/A   Overcast
8:04 AM 59.0 °F - 57.0 °F 93% 30.16 in 3.0 mi East 3.5 mph - N/A   Overcast
8:53 AM 60.1 °F - 57.9 °F 93% 30.16 in 7.0 mi SSE 3.5 mph - N/A   Overcast
9:53 AM 64.9 °F - 59.0 °F 81% 30.17 in 10.0 mi ESE 6.9 mph - N/A   Overcast
10:24 AM 68.0 °F - 60.1 °F 76% 30.17 in 10.0 mi South 8.1 mph - N/A   Mostly Cloudy
10:41 AM 70.0 °F - 61.0 °F 73% 30.17 in 10.0 mi SSW 9.2 mph - N/A   Scattered Clouds
10:53 AM 72.0 °F - 62.1 °F 71% 30.17 in 10.0 mi South 6.9 mph - N/A   Partly Cloudy
11:53 AM 75.9 °F - 62.1 °F 62% 30.16 in 10.0 mi North - - N/A   Mostly Cloudy
12:53 PM 80.1 °F 81.2 °F 62.1 °F 54% 30.14 in 10.0 mi South 8.1 mph - N/A   Mostly Cloudy
1:53 PM 82.0 °F 82.4 °F 60.1 °F 47% 30.11 in 10.0 mi South 13.8 mph 19.6 mph N/A   Mostly Cloudy
2:53 PM 84.0 °F 83.8 °F 59.0 °F 43% 30.09 in 10.0 mi SSW 11.5 mph - N/A   Mostly Cloudy
3:53 PM 81.0 °F 81.1 °F 57.9 °F 45% 30.08 in 10.0 mi South 12.7 mph 19.6 mph N/A   Mostly Cloudy
4:53 PM 81.0 °F 81.7 °F 61.0 °F 50% 30.08 in 10.0 mi SSW 10.4 mph - N/A   Mostly Cloudy
5:53 PM 78.1 °F - 60.1 °F 54% 30.08 in 10.0 mi South 9.2 mph 18.4 mph N/A   Clear
6:53 PM 75.0 °F - 60.1 °F 60% 30.09 in 10.0 mi South 6.9 mph - N/A   Clear
7:53 PM 71.1 °F - 59.0 °F 66% 30.09 in 10.0 mi South 8.1 mph - N/A   Clear
8:53 PM 68.0 °F - 59.0 °F 73% 30.10 in 10.0 mi South 8.1 mph - N/A   Clear
9:53 PM 66.9 °F - 60.1 °F 79% 30.11 in 10.0 mi South 6.9 mph - N/A   Clear
10:53 PM 66.0 °F - 61.0 °F 84% 30.10 in 10.0 mi South 6.9 mph - N/A   Clear
11:53 PM 64.0 °F - 60.1 °F 87% 30.09 in 10.0 mi South 8.1 mph - N/A   Clear